When you browse on this site, cookies collect data to enhance your experience and personalize the content and advertising you see.
Visit our Privacy Policy to learn more. By continuing to use the site, you agree to this use of cookies and data.
  • In Hungary
  • List of Countries
  • For 7 days
  • Water Temperature
  • Satellite Maps
  • Weather Map
  • News
  • Weather Widgets
  • user-avatar
    Login

    Hourly Weather Ioannina

    Today, 18 January, Friday

    Time Temperature Precipitation Wind Pressure Humidity
    00:00 +1°C° 0 mm 1 mps 686 mmHg 91%
    01:00 +2°C° 0 mm 1 mps 686 mmHg 92%
    02:00 +2°C° 0.1 mm 1 mps 686 mmHg 93%
    03:00 +2°C° 0.1 mm 1 mps 686 mmHg 94%
    04:00 +2°C° 0.1 mm 1 mps 686 mmHg 94%
    05:00 +2°C° 0.1 mm 1 mps 686 mmHg 95%
    06:00 +2°C° 0.1 mm 1 mps 686 mmHg 95%
    07:00 +2°C° 0 mm 2 mps 686 mmHg 97%
    08:00 +3°C° 0.1 mm 2 mps 686 mmHg 96%
    09:00 +4°C° 0.1 mm 2 mps 686 mmHg 94%
    10:00 +4°C° 0.1 mm 2 mps 686 mmHg 93%
    11:00 +4°C° 0.6 mm 2 mps 686 mmHg 93%
    12:00 +4°C° 0.6 mm 2 mps 686 mmHg 92%
    13:00 +4°C° 0.6 mm 2 mps 686 mmHg 92%
    14:00 +4°C° 1.5 mm 2 mps 686 mmHg 93%
    15:00 +4°C° 1.5 mm 1 mps 686 mmHg 95%
    16:00 +4°C° 1.5 mm 1 mps 686 mmHg 96%
    17:00 +4°C° 1.4 mm 1 mps 686 mmHg 96%
    18:00 +4°C° 1.4 mm 1 mps 686 mmHg 96%
    19:00 +3°C° 1.4 mm 1 mps 686 mmHg 96%
    20:00 +3°C° 0.6 mm 1 mps 686 mmHg 96%
    21:00 +3°C° 0.6 mm 1 mps 686 mmHg 96%
    22:00 +4°C° 0.6 mm 1 mps 686 mmHg 96%
    23:00 +4°C° 0.3 mm 1 mps 686 mmHg 96%

    Tomorrow, 19 January, Saturday

    Time Temperature Precipitation Wind Pressure Humidity
    00:00 +4°C° 0.3 mm 1 mps 686 mmHg 96%
    01:00 +4°C° 0.3 mm 1 mps 686 mmHg 96%
    02:00 +3°C° 0.3 mm 1 mps 686 mmHg 95%
    03:00 +3°C° 0.3 mm 1 mps 685 mmHg 95%
    04:00 +3°C° 0.3 mm 1 mps 685 mmHg 95%
    05:00 +3°C° 1 mm 1 mps 685 mmHg 94%
    06:00 +3°C° 1 mm 1 mps 685 mmHg 94%
    07:00 +3°C° 1 mm 1 mps 685 mmHg 94%
    08:00 +4°C° 1.3 mm 1 mps 686 mmHg 93%
    09:00 +4°C° 1.3 mm 1 mps 686 mmHg 93%
    10:00 +4°C° 1.3 mm 1 mps 686 mmHg 93%
    11:00 +5°C° 0.9 mm 1 mps 686 mmHg 93%
    12:00 +5°C° 0.9 mm 1 mps 685 mmHg 93%
    13:00 +6°C° 0.9 mm 1 mps 685 mmHg 93%
    14:00 +6°C° 0.2 mm 1 mps 685 mmHg 93%
    15:00 +6°C° 0.2 mm 1 mps 685 mmHg 93%
    16:00 +6°C° 0.2 mm 1 mps 685 mmHg 92%
    17:00 +5°C° 0.1 mm 1 mps 685 mmHg 93%
    18:00 +5°C° 0.1 mm 1 mps 685 mmHg 93%
    19:00 +4°C° 0.1 mm 1 mps 685 mmHg 93%
    20:00 +4°C° 0.2 mm 1 mps 685 mmHg 93%
    21:00 +4°C° 0.2 mm 1 mps 685 mmHg 93%
    22:00 +4°C° 0.2 mm 1 mps 685 mmHg 92%
    23:00 +4°C° 0.4 mm 1 mps 685 mmHg 92%

    Day after tomorrow, 20 January, Sunday

    Time Temperature Precipitation Wind Pressure Humidity
    00:00 +4°C° 0.4 mm 1 mps 685 mmHg 92%
    01:00 +4°C° 0.4 mm 1 mps 685 mmHg 92%
    02:00 +4°C° 0.3 mm 1 mps 684 mmHg 92%
    03:00 +4°C° 0.3 mm 1 mps 684 mmHg 92%
    04:00 +4°C° 0.3 mm 1 mps 684 mmHg 92%
    05:00 +3°C° 0.1 mm 1 mps 684 mmHg 93%
    06:00 +3°C° 0.1 mm 1 mps 684 mmHg 93%
    07:00 +3°C° 0.1 mm 1 mps 684 mmHg 93%
    08:00 +4°C° 0 mm 1 mps 685 mmHg 90%
    09:00 +6°C° 0 mm 1 mps 685 mmHg 87%
    10:00 +6°C° 0 mm 2 mps 685 mmHg 84%
    11:00 +6°C° 0.1 mm 2 mps 685 mmHg 82%
    12:00 +7°C° 0.1 mm 2 mps 685 mmHg 79%
    13:00 +7°C° 0.1 mm 2 mps 684 mmHg 76%
    14:00 +7°C° 0.1 mm 2 mps 684 mmHg 80%
    15:00 +7°C° 0.1 mm 1 mps 684 mmHg 83%
    16:00 +6°C° 0.1 mm 1 mps 684 mmHg 86%
    17:00 +5°C° 0 mm 1 mps 684 mmHg 87%
    18:00 +4°C° 0 mm 1 mps 684 mmHg 88%
    19:00 +3°C° 0 mm 1 mps 684 mmHg 89%
    20:00 +3°C° 0 mm 1 mps 684 mmHg 87%
    21:00 +3°C° 0 mm 1 mps 684 mmHg 86%
    22:00 +2°C° 0 mm 1 mps 684 mmHg 85%
    23:00 +2°C° 0 mm 1 mps 684 mmHg 83%

    21 January, Monday

    Time Temperature Precipitation Wind Pressure Humidity
    00:00 +2°C° 0 mm 1 mps 684 mmHg 82%
    01:00 +2°C° 0 mm 1 mps 684 mmHg 81%
    02:00 +1°C° 0 mm 1 mps 684 mmHg 81%
    03:00 +1°C° 0 mm 1 mps 684 mmHg 81%
    04:00 +1°C° 0 mm 1 mps 684 mmHg 81%
    05:00 +1°C° 0 mm 1 mps 684 mmHg 82%
    06:00 +1°C° 0 mm 1 mps 684 mmHg 82%
    07:00 +1°C° 0 mm 1 mps 684 mmHg 83%
    08:00 +3°C° 0 mm 1 mps 685 mmHg 79%
    09:00 +4°C° 0 mm 0 mps 685 mmHg 75%
    10:00 +6°C° 0 mm 0 mps 686 mmHg 72%
    11:00 +7°C° 0 mm 0 mps 686 mmHg 71%
    12:00 +8°C° 0 mm 1 mps 686 mmHg 69%
    13:00 +9°C° 0 mm 1 mps 686 mmHg 68%
    14:00 +8°C° 0 mm 1 mps 686 mmHg 73%
    15:00 +7°C° 0 mm 1 mps 685 mmHg 78%
    16:00 +7°C° 0 mm 1 mps 685 mmHg 82%
    17:00 +6°C° 0 mm 1 mps 685 mmHg 84%
    18:00 +5°C° 0 mm 1 mps 686 mmHg 86%
    19:00 +4°C° 0 mm 1 mps 686 mmHg 88%
    20:00 +4°C° 0 mm 1 mps 686 mmHg 88%
    21:00 +3°C° 0 mm 1 mps 686 mmHg 88%
    22:00 +3°C° 0 mm 1 mps 686 mmHg 87%
    23:00 +3°C° 0 mm 1 mps 686 mmHg 87%

    22 January, Tuesday

    Time Temperature Precipitation Wind Pressure Humidity
    00:00 +2°C° 0 mm 2 mps 686 mmHg 87%
    01:00 +2°C° 0 mm 2 mps 686 mmHg 87%
    02:00 +2°C° 0 mm 2 mps 685 mmHg 88%
    03:00 +2°C° 0 mm 2 mps 685 mmHg 88%
    04:00 +2°C° 0 mm 2 mps 685 mmHg 88%
    05:00 +2°C° 0 mm 2 mps 685 mmHg 88%
    06:00 +2°C° 0 mm 2 mps 685 mmHg 88%
    07:00 +2°C° 0 mm 2 mps 685 mmHg 88%
    08:00 +3°C° 0.1 mm 2 mps 685 mmHg 86%
    09:00 +4°C° 0.1 mm 2 mps 685 mmHg 84%
    10:00 +5°C° 0.1 mm 2 mps 685 mmHg 81%
    11:00 +5°C° 0.4 mm 2 mps 684 mmHg 81%
    12:00 +5°C° 0.4 mm 2 mps 683 mmHg 81%
    13:00 +6°C° 0.4 mm 2 mps 683 mmHg 80%
    14:00 +5°C° 1.3 mm 2 mps 682 mmHg 84%
    15:00 +4°C° 1.3 mm 2 mps 681 mmHg 88%
    16:00 +4°C° 1.3 mm 2 mps 681 mmHg 91%
    17:00 +4°C° 1.1 mm 2 mps 680 mmHg 91%
    18:00 +4°C° 1.1 mm 2 mps 680 mmHg 91%
    19:00 +4°C° 1.1 mm 2 mps 679 mmHg 91%
    20:00 +4°C° 0.4 mm 2 mps 679 mmHg 91%
    21:00 +4°C° 0.4 mm 2 mps 679 mmHg 90%
    22:00 +4°C° 0.4 mm 2 mps 678 mmHg 90%
    23:00 +3°C° 1.2 mm 3 mps 678 mmHg 92%

    23 January, Wednesday

    Time Temperature Precipitation Wind Pressure Humidity
    00:00 +3°C° 1.2 mm 3 mps 677 mmHg 94%
    01:00 +3°C° 1.2 mm 4 mps 677 mmHg 95%
    02:00 +3°C° 2.1 mm 3 mps 676 mmHg 96%
    03:00 +3°C° 2.1 mm 3 mps 676 mmHg 97%
    04:00 +3°C° 2.1 mm 3 mps 676 mmHg 97%
    05:00 +2°C° 0.9 mm 3 mps 675 mmHg 97%
    06:00 +2°C° 0.9 mm 3 mps 675 mmHg 97%
    07:00 +1°C° 0.9 mm 3 mps 675 mmHg 96%
    08:00 +2°C° 1 mm 3 mps 675 mmHg 94%
    09:00 +2°C° 1 mm 3 mps 675 mmHg 92%
    10:00 +1°C° 1 mm 4 mps 675 mmHg 90%
    11:00 +2°C° 2.1 mm 3 mps 674 mmHg 92%
    12:00 +2°C° 2.1 mm 3 mps 674 mmHg 94%
    13:00 +2°C° 2.1 mm 3 mps 673 mmHg 96%
    14:00 +2°C° 1.6 mm 3 mps 673 mmHg 96%
    15:00 +2°C° 1.6 mm 3 mps 673 mmHg 96%
    16:00 +2°C° 1.6 mm 3 mps 673 mmHg 96%
    17:00 +2°C° 0.9 mm 3 mps 673 mmHg 96%
    18:00 +2°C° 0.9 mm 3 mps 673 mmHg 96%
    19:00 +2°C° 0.9 mm 3 mps 673 mmHg 97%
    20:00 +1°C° 3.5 mm 4 mps 672 mmHg 97%
    21:00 +1°C° 3.5 mm 4 mps 672 mmHg 97%
    22:00 +1°C° 3.5 mm 4 mps 672 mmHg 97%
    23:00 +1°C° 5.9 mm 4 mps 671 mmHg 97%
    Show more